Regional Weather Roundup
Issued by NWS Sterling, VA

Home | Current Version | Previous Version | Graphics & Text | Print | Product List | Glossary On
Versions: 1 2 3 4 5 6 7 8 9 10 11 12 13 14 15 16 17 18 19 20 21 22 23 24 25 26 27 28 29 30 31 32 33 34 35 36 37 38 39 40 41 42 43 44 45 46 47 48 49 50
000
ASUS41 KLWX 021310
RWRLWX

REGIONAL WEATHER ROUNDUP
NATIONAL WEATHER SERVICE BALTIMORE MD/WASHINGTON DC
900 AM EDT TUE JUN 02 2015

Note: "FAIR" indicates few or no clouds below 12,000 feet
with no significant weather and/or obstructions to visibility.
 TC=TEMPERATURE CELSIUS

 * =Non NWS site. Station does not report precipitation (e.g. rain,
    snow, etc.), thunder, or fog.

DCZ001-MDZ009-015-VAZ040>042-051-053>054-021400-
WASHINGTON METRO

CITY           SKY/WX    TMP DP  RH WIND       PRES   REMARKS
WASHINGTON NAT LGT RAIN  64  61  88 NE13      30.05R FOG
DULLES         DRIZZLE   60  59  96 N10       30.06R FOG
ANDREWS AFB    DRIZZLE   62  62  99 NE8       30.04R FOG
FT BELVOIR     DRIZZLE   64  63  94 VRB5      30.04R FOG
QUANTICO       CLOUDY    69  66  90 N5        30.03R
COLLEGE PARK*  CLOUDY    61  61 100 N8        30.06R
LEESBURG*      CLOUDY    59  59 100 NE9       30.08R FOG
MANASSAS*      CLOUDY   N/A N/A N/A N12G17    30.05
GAITHERSBURG*  CLOUDY    59  55  88 N5        30.11R

$$

MDZ006>007-011-014-021400-
BALTIMORE METRO

CITY           SKY/WX    TMP DP  RH WIND       PRES   REMARKS
BWI AIRPORT    DRIZZLE   59  56  89 NE12      30.07R FOG
MD SCIENCE CTR   N/A     59  55  87 MISG      30.09R
MARTIN STATE   CLOUDY    57  57 100 N8        30.10R
ANNAPOLIS      CLOUDY    60  32  34 VRB7      30.06R FOG
FORT MEADE*    CLOUDY    59  55  88 NE8       30.09R

$$

MDZ012-015-019>023-021400-
MARYLAND EASTERN SHORE

CITY           SKY/WX    TMP DP  RH WIND       PRES   REMARKS
OCEAN CITY     CLOUDY    65  62  90 NE13      30.04R
SALISBURY      CLOUDY    71  68  90 NE7       30.03R
BAY BRIDGE AP*   N/A    N/A N/A N/A NE10      30.06R FOG
EASTON*        DRIZZLE   61  61 100 NE12      30.08S

$$

MDZ017>025-021400-
SOUTHERN MARYLAND

CITY           SKY/WX    TMP DP  RH WIND       PRES   REMARKS
PATUXENT RIVER CLOUDY    72  67  84 SE3       30.02R
ST INIGOES       N/A     73  69  87 CALM      30.01R
LEONARDTOWN*   CLOUDY    70  66  88 CALM      30.04R

$$

MDZ003>005-021400-
NORTH CENTRAL MARYLAND

CITY           SKY/WX    TMP DP  RH WIND       PRES   REMARKS
FREDERICK*     CLOUDY    57  57 100 N10       30.11R FOG
HAGERSTOWN APT CLOUDY    59  56  89 N7        30.09R
WESTMINSTER*   DRIZZLE   55  54  94 NE6       30.09R

$$

MDZ501>502-021400-
WESTERN MARYLAND

CITY           SKY/WX    TMP DP  RH WIND       PRES   REMARKS
OAKLAND*       CLOUDY    52 N/A N/A CALM      30.11R HAZE
CUMBERLAND*      N/A     59  59 100 CALM        N/A

$$

VAZ025>031-021400-
SHENANDOAH VALLEY

CITY           SKY/WX    TMP DP  RH WIND       PRES   REMARKS
WINCHESTER*    CLOUDY    61  59  94 N6        30.08R FOG
FRONT ROYAL*   CLOUDY    59  59 100 MISG      30.07R
LURAY*         CLOUDY    63  63 100 NE7       30.07R
NEW MARKET*    CLOUDY    61  60  97 N6        30.06R
STAUNTON*      LGT RAIN  65  63  93 N5        30.08R
WAYNESBORO*    CLOUDY    62  62 100 CALM      30.06R VSB 1/4

$$

WVZ021-048>050-054>055-021400-
EASTERN WEST VIRGINIA PANHANDLE

CITY           SKY/WX    TMP DP  RH WIND       PRES   REMARKS
MARTINSBURG    CLOUDY    60  57  89 N9        30.09R
PETERSBURG*    CLOUDY    58  56  95 CALM      30.11R FOG

$$

VAZ036>039-050-021400-
CENTRAL FOOTHILLS

CITY           SKY/WX    TMP DP  RH WIND       PRES   REMARKS
CHARLOTTESVILL CLOUDY    68  65  90 CALM      30.03R
CULPEPER*      CLOUDY    64  63  96 N6        30.05R
ORANGE*        CLOUDY    70  66  88 CALM      30.04R
GORDONSVILLE*  CLOUDY    68  66  94 E3        30.02R
WARRENTON*     CLOUDY    65  64  99 N7        30.04R FOG

$$

VAZ055>057-021400-
NORTH AND CENTRAL PIEDMONT

CITY           SKY/WX    TMP DP  RH WIND       PRES   REMARKS
FREDERICKSBRG* CLOUDY    71  70  98 CALM      30.02R
STAFFORD*      CLOUDY    69  66  89 CALM      30.07R

$$

NCZ024-NYZ072-PAZ021-071-VAZ022-071-021400-
OTHER REGIONAL OBSERVATIONS

CITY           SKY/WX    TMP DP  RH WIND       PRES   REMARKS
NEW YORK CITY  CLOUDY    51  48  89 NE7       30.17R FOG
PHILADELPHIA   DRIZZLE   53  50  89 NE14      30.12S FOG
PITTSBURGH     CLOUDY    55  49  80 N9        30.13R
ROANOKE        CLOUDY    67  63  87 NW6       30.07R
RICHMOND       CLOUDY    74  68  81 CALM      30.02R
RALEIGH        CLOUDY    70  68  93 SW8       30.03R

$$

ANZ530>537-021400-
MARINE OBSERVATIONS

STATION/POSITION TIME  TEMP    WIND        PRES
                       AIR SEA DIR/SP/G
                 (UTC) (F)     (DEG/KT/KT) (MB)
THOMAS PT LIGHT  1300   59 74   40/ 19/ 21 1018.0R
BALT KEY BRIDGE  1200   60      20/ 12/ 14 1017.3R
COVE POINT       1200   69     350/  3/  3 1017.0R
LEWISETTA        1200   71 74              1015.7R
SOLOMONS ISLAND  1200      72                N/A
PINEY POINT      1200          130/  2/  3   N/A

$$




USA.gov is the U.S. government's official web portal to all federal, state and local government web resources and services.